Weather in Joniskis

Lithuania     56°14′11″N   23°36′54″E
temp.,
°C
wind,
m/s
gust,
m/s
humid.,
%
clouds,
%
prec.,
mm/h
press.,
hPa
HPBL,
m
27 february, sat
sat2723:00+2wnw611917 0.0 1015286
02:00+3wnw6138953 0.0 1017486
05:00+1nw6148832 0.0 1017545
08:00+1nw6138816 0.0 1020524
11:00+4nnw712760 0.0 1022915
14:00+5nnw711680 0.0 10251125
17:00+4nw511720 0.0 1025513
20:00+1nw511830 0.0 1027331
28 february, sun
sun2823:000wnw489146 0.0 1027277
02:00+1wnw5108773 0.0 1027333
05:00+2wnw6128496 0.1 1026356
08:00+3wnw8167898 0.1 1024467
11:00+6nw6137998 0.0 10241025
14:00+4nw5129199 0.8 1024585
17:00+5nw598575 0.0 1024360
20:00+2nw489254 0.0 1027184
1 march, mon
mon123:00+1wnw35948 0.0 102897
02:00+1wnw36944 0.0 1029144
05:00+1wnw48940 0.0 1029168
08:00+1w48920 0.0 1030160
11:00+6w58780 0.0 1029337
14:00+9wsw6116916 0.0 1027545
17:00+7w7156837 0.0 1025604
20:00+3w6118821 0.0 1026350
2 march, tue
tue223:00+2wnw59920 0.0 1027226
02:00+1wnw46910 0.0 1028122
05:00+1w478862 0.0 1027137
08:00+2w598439 0.0 1027209
11:00+6w58720 0.0 1027287
14:00+9wnw58630 0.0 1027607
17:00+8wnw47720 0.0 1026229
20:00+4wnw46860 0.0 1027118
3 march, wed
wed323:00+2wnw36880 0.0 1028106
02:00+1wnw34901 0.0 102881
05:00+1wnw349116 0.0 102870
08:00+1w359115 0.0 102799
11:00+5w34770 0.0 1027261
14:00+8wsw33681 0.0 1026507
17:00+7sw36770 0.0 1024253
20:00+2wsw48920 0.0 1022347